Year,Month,Day,Hour,Minute,Value (Times are PST for windspeed in km/hr)
2014,02,17,00,06,1.60
2014,02,17,00,07,0.10
2014,02,17,00,08,0.20
2014,02,17,00,09,1.20
2014,02,17,00,10,0.50
2014,02,17,00,11,0.00
2014,02,17,00,12,0.00
2014,02,17,00,13,0.00
2014,02,17,00,14,0.00
2014,02,17,00,15,0.10
2014,02,17,00,16,0.10
2014,02,17,00,17,0.00
2014,02,17,00,18,0.00
2014,02,17,00,19,0.00
2014,02,17,00,20,0.00
2014,02,17,00,21,0.00
2014,02,17,00,22,0.00
2014,02,17,00,23,0.00
2014,02,17,00,24,0.00
2014,02,17,00,25,0.00
2014,02,17,00,26,0.00
2014,02,17,00,27,0.00
2014,02,17,00,28,0.00
2014,02,17,00,29,0.00
2014,02,17,00,30,0.00
2014,02,17,00,31,0.00
2014,02,17,00,32,0.00
2014,02,17,00,33,0.00
2014,02,17,00,34,0.10
2014,02,17,00,35,0.00
2014,02,17,00,36,0.00
2014,02,17,00,37,0.50
2014,02,17,00,38,0.20
2014,02,17,00,39,1.00
2014,02,17,00,40,1.00
2014,02,17,00,41,0.00
2014,02,17,00,42,0.20
2014,02,17,00,43,1.50
2014,02,17,00,44,0.00
2014,02,17,00,45,0.00
2014,02,17,00,46,1.60
2014,02,17,00,47,1.70
2014,02,17,00,48,2.00
2014,02,17,00,49,1.60
2014,02,17,00,50,3.10
2014,02,17,00,51,0.80
2014,02,17,00,52,0.40
2014,02,17,00,53,0.00
2014,02,17,00,54,0.00
2014,02,17,00,55,0.00
2014,02,17,00,56,0.00
2014,02,17,00,57,0.00
2014,02,17,00,58,0.80
2014,02,17,00,59,1.80
2014,02,17,01,00,2.20
2014,02,17,01,01,1.00
2014,02,17,01,02,0.00
2014,02,17,01,03,0.10
2014,02,17,01,04,0.30
2014,02,17,01,05,0.80
2014,02,17,01,06,0.90
2014,02,17,01,07,0.50
2014,02,17,01,08,1.00
2014,02,17,01,09,0.00
2014,02,17,01,10,0.00
2014,02,17,01,11,0.00
2014,02,17,01,12,0.00
2014,02,17,01,13,0.00
2014,02,17,01,14,0.00
2014,02,17,01,15,0.00
2014,02,17,01,16,0.00
2014,02,17,01,17,0.00
2014,02,17,01,18,0.00
2014,02,17,01,19,0.00
2014,02,17,01,20,0.00
2014,02,17,01,21,0.00
2014,02,17,01,22,0.00
2014,02,17,01,23,0.20
2014,02,17,01,24,1.10
2014,02,17,01,25,1.20
2014,02,17,01,26,1.10
2014,02,17,01,27,1.10
2014,02,17,01,28,1.90
2014,02,17,01,29,1.10
2014,02,17,01,30,0.50
2014,02,17,01,31,0.30
2014,02,17,01,32,0.60
2014,02,17,01,33,1.60
2014,02,17,01,34,2.00
2014,02,17,01,35,2.30
2014,02,17,01,36,1.50
2014,02,17,01,37,0.10
2014,02,17,01,38,0.00
2014,02,17,01,39,0.00
2014,02,17,01,40,0.00
2014,02,17,01,41,0.50
2014,02,17,01,42,0.90
2014,02,17,01,43,2.10
2014,02,17,01,44,1.50
2014,02,17,01,45,0.00
2014,02,17,01,46,0.40
2014,02,17,01,47,0.00
2014,02,17,01,48,0.00
2014,02,17,01,49,0.00
2014,02,17,01,50,0.00
2014,02,17,01,51,0.10
2014,02,17,01,52,1.20
2014,02,17,01,53,2.10
2014,02,17,01,54,2.30
2014,02,17,01,55,1.60
2014,02,17,01,56,0.60
2014,02,17,01,57,0.20
2014,02,17,01,58,1.10
2014,02,17,01,59,0.00
2014,02,17,02,00,0.50
2014,02,17,02,01,1.80
2014,02,17,02,02,2.30
2014,02,17,02,03,1.10
2014,02,17,02,04,0.00
2014,02,17,02,05,1.50
2014,02,17,02,06,1.50
2014,02,17,02,07,0.70
2014,02,17,02,08,1.10
2014,02,17,02,09,1.00
2014,02,17,02,10,0.40
2014,02,17,02,11,1.50
2014,02,17,02,12,1.20
2014,02,17,02,13,1.80
2014,02,17,02,14,2.90
2014,02,17,02,15,3.60
2014,02,17,02,16,0.30
2014,02,17,02,17,0.30
2014,02,17,02,18,0.30
2014,02,17,02,19,0.00
2014,02,17,02,20,0.80
2014,02,17,02,21,0.40
2014,02,17,02,22,0.00
2014,02,17,02,23,0.00
2014,02,17,02,24,0.00
2014,02,17,02,25,0.00
2014,02,17,02,26,0.00
2014,02,17,02,27,0.00
2014,02,17,02,28,0.00
2014,02,17,02,29,0.00
2014,02,17,02,30,0.00
2014,02,17,02,31,0.00
2014,02,17,02,32,0.00
2014,02,17,02,33,0.10
2014,02,17,02,34,0.30
2014,02,17,02,35,1.10
2014,02,17,02,36,0.40
2014,02,17,02,37,1.30
2014,02,17,02,38,0.10
2014,02,17,02,39,1.30
2014,02,17,02,40,2.10
2014,02,17,02,41,0.30
2014,02,17,02,42,0.00
2014,02,17,02,43,2.20
2014,02,17,02,44,6.10
2014,02,17,02,45,9.00
2014,02,17,02,46,9.80
2014,02,17,02,47,8.20
2014,02,17,02,48,8.10
2014,02,17,02,49,3.30
2014,02,17,02,50,4.00
2014,02,17,02,51,4.50
2014,02,17,02,52,4.30
2014,02,17,02,53,5.60
2014,02,17,02,54,3.10
2014,02,17,02,55,3.70
2014,02,17,02,56,2.40
2014,02,17,02,57,1.10
2014,02,17,02,58,0.00
2014,02,17,02,59,0.00
2014,02,17,03,00,0.00
2014,02,17,03,01,0.00
2014,02,17,03,02,0.10
2014,02,17,03,03,0.00
2014,02,17,03,04,0.00
2014,02,17,03,05,0.00
2014,02,17,03,06,0.00
2014,02,17,03,07,0.80
2014,02,17,03,08,2.40
2014,02,17,03,09,6.80
2014,02,17,03,10,7.30
2014,02,17,03,11,6.10
2014,02,17,03,12,8.00
2014,02,17,03,13,5.70
2014,02,17,03,14,6.50
2014,02,17,03,15,10.50
2014,02,17,03,16,7.80
2014,02,17,03,17,6.50
2014,02,17,03,18,1.50
2014,02,17,03,19,1.10
2014,02,17,03,20,2.10
2014,02,17,03,21,2.80
2014,02,17,03,22,3.30
2014,02,17,03,23,3.00
2014,02,17,03,24,4.90
2014,02,17,03,25,1.50
2014,02,17,03,26,1.20
2014,02,17,03,27,1.70
2014,02,17,03,28,2.80
2014,02,17,03,29,3.30
2014,02,17,03,30,1.50
2014,02,17,03,31,0.90
2014,02,17,03,32,0.20
2014,02,17,03,33,0.50
2014,02,17,03,34,0.20
2014,02,17,03,35,0.00
2014,02,17,03,36,0.00
2014,02,17,03,37,0.00
2014,02,17,03,38,0.00
2014,02,17,03,39,0.20
2014,02,17,03,40,0.00
2014,02,17,03,41,0.00
2014,02,17,03,42,0.00
2014,02,17,03,43,0.80
2014,02,17,03,44,3.20
2014,02,17,03,45,3.30
2014,02,17,03,46,3.60
2014,02,17,03,47,3.50
2014,02,17,03,48,2.90
2014,02,17,03,49,5.30
2014,02,17,03,50,3.90
2014,02,17,03,51,1.90
2014,02,17,03,52,4.70
2014,02,17,03,53,1.90
2014,02,17,03,54,0.60
2014,02,17,03,55,1.60
2014,02,17,03,56,0.40
2014,02,17,03,57,2.90
2014,02,17,03,58,3.40
2014,02,17,03,59,3.20
2014,02,17,04,00,2.50
2014,02,17,04,01,1.90
2014,02,17,04,02,3.90
2014,02,17,04,03,5.50
2014,02,17,04,04,3.80
2014,02,17,04,05,3.90
2014,02,17,04,06,2.20
2014,02,17,04,07,6.50
2014,02,17,04,08,3.00
2014,02,17,04,09,6.40
2014,02,17,04,10,5.10
2014,02,17,04,11,6.60
2014,02,17,04,12,4.40
2014,02,17,04,13,3.80
2014,02,17,04,14,4.30
2014,02,17,04,15,3.00
2014,02,17,04,16,6.40
2014,02,17,04,17,5.10
2014,02,17,04,18,6.10
2014,02,17,04,19,4.00
2014,02,17,04,20,3.40
2014,02,17,04,21,2.50
2014,02,17,04,22,4.10
2014,02,17,04,23,4.70
2014,02,17,04,24,3.70
2014,02,17,04,25,3.10
2014,02,17,04,26,6.20
2014,02,17,04,27,3.90
2014,02,17,04,28,2.00
2014,02,17,04,29,1.90
2014,02,17,04,30,3.50
2014,02,17,04,31,2.40
2014,02,17,04,32,1.90
2014,02,17,04,33,0.50
2014,02,17,04,34,2.50
2014,02,17,04,35,1.90
2014,02,17,04,36,0.50
2014,02,17,04,37,1.20
2014,02,17,04,38,1.10
2014,02,17,04,39,0.10
2014,02,17,04,40,1.70
2014,02,17,04,41,2.70
2014,02,17,04,42,1.00
2014,02,17,04,43,0.30
2014,02,17,04,44,0.10
2014,02,17,04,45,5.50
2014,02,17,04,46,2.80
2014,02,17,04,47,1.90
2014,02,17,04,48,3.50
2014,02,17,04,49,4.20
2014,02,17,04,50,2.60
2014,02,17,04,51,1.80
2014,02,17,04,52,3.40
2014,02,17,04,53,2.60
2014,02,17,04,54,3.40
2014,02,17,04,55,1.90
2014,02,17,04,56,2.30
2014,02,17,04,57,0.80
2014,02,17,04,58,1.60
2014,02,17,04,59,4.00
2014,02,17,05,00,6.70
2014,02,17,05,01,4.20
2014,02,17,05,02,2.30
2014,02,17,05,03,2.90
2014,02,17,05,04,4.10
2014,02,17,05,05,2.40
2014,02,17,05,06,3.60
2014,02,17,05,07,5.70
2014,02,17,05,08,3.80
2014,02,17,05,09,5.10
2014,02,17,05,10,3.80
2014,02,17,05,11,4.50
2014,02,17,05,12,4.20
2014,02,17,05,13,2.40
2014,02,17,05,14,3.10
2014,02,17,05,15,3.10
2014,02,17,05,16,3.30
2014,02,17,05,17,3.60
2014,02,17,05,18,1.70
2014,02,17,05,19,3.50
2014,02,17,05,20,6.00
2014,02,17,05,21,3.00
2014,02,17,05,22,2.30
2014,02,17,05,23,2.70
2014,02,17,05,24,4.70
2014,02,17,05,25,5.10
2014,02,17,05,26,7.40
2014,02,17,05,27,7.60
2014,02,17,05,28,8.10
2014,02,17,05,29,4.70
2014,02,17,05,30,2.80
2014,02,17,05,31,2.40
2014,02,17,05,32,4.10
2014,02,17,05,33,1.50
2014,02,17,05,34,4.20
2014,02,17,05,35,3.40
2014,02,17,05,36,3.60
2014,02,17,05,37,3.10
2014,02,17,05,38,1.40
2014,02,17,05,39,4.40
2014,02,17,05,40,2.70
2014,02,17,05,41,6.30
2014,02,17,05,42,6.20
2014,02,17,05,43,6.00
2014,02,17,05,44,2.10
2014,02,17,05,45,3.70
2014,02,17,05,46,6.70
2014,02,17,05,47,3.50
2014,02,17,05,48,2.90
2014,02,17,05,49,3.40
2014,02,17,05,50,3.90
2014,02,17,05,51,1.20
2014,02,17,05,52,1.50
2014,02,17,05,53,2.90
2014,02,17,05,54,2.70
2014,02,17,05,55,2.10
2014,02,17,05,56,1.80
2014,02,17,05,57,3.80
2014,02,17,05,58,1.10
2014,02,17,05,59,1.40
2014,02,17,06,00,0.20
2014,02,17,06,01,3.70
2014,02,17,06,02,3.00
2014,02,17,06,03,2.20
2014,02,17,06,04,3.40
2014,02,17,06,05,0.80
2014,02,17,06,06,1.60
2014,02,17,06,07,0.00
2014,02,17,06,08,0.20
2014,02,17,06,09,2.60
2014,02,17,06,10,1.80
2014,02,17,06,11,3.80
2014,02,17,06,12,2.50
2014,02,17,06,13,1.80
2014,02,17,06,14,1.10
2014,02,17,06,15,0.60
2014,02,17,06,16,1.70
2014,02,17,06,17,2.10
2014,02,17,06,18,3.00
2014,02,17,06,19,2.50
2014,02,17,06,20,2.30
2014,02,17,06,21,3.50
2014,02,17,06,22,5.00
2014,02,17,06,23,5.00
2014,02,17,06,24,5.20
2014,02,17,06,25,3.40
2014,02,17,06,26,3.40
2014,02,17,06,27,5.50
2014,02,17,06,28,2.40
2014,02,17,06,29,1.70
2014,02,17,06,30,0.80
2014,02,17,06,31,0.50
2014,02,17,06,32,1.10
2014,02,17,06,33,1.30
2014,02,17,06,34,1.90
2014,02,17,06,35,1.50
2014,02,17,06,36,1.40
2014,02,17,06,37,1.10
2014,02,17,06,38,0.40
2014,02,17,06,39,1.00
2014,02,17,06,40,2.30
2014,02,17,06,41,2.20
2014,02,17,06,42,2.00
2014,02,17,06,43,1.50
2014,02,17,06,44,1.60
2014,02,17,06,45,1.50
2014,02,17,06,46,2.30
2014,02,17,06,47,4.40
2014,02,17,06,48,3.90
2014,02,17,06,49,2.40
2014,02,17,06,50,2.80
2014,02,17,06,51,3.20
2014,02,17,06,52,3.40
2014,02,17,06,53,3.10
2014,02,17,06,54,1.60
2014,02,17,06,55,0.30
2014,02,17,06,56,2.00
2014,02,17,06,57,1.10
2014,02,17,06,58,0.00
2014,02,17,06,59,0.00
2014,02,17,07,00,0.00
2014,02,17,07,01,0.20
2014,02,17,07,02,0.90
2014,02,17,07,03,2.10
2014,02,17,07,04,2.00
2014,02,17,07,05,2.50
2014,02,17,07,06,4.70
2014,02,17,07,07,4.60
2014,02,17,07,08,2.10
2014,02,17,07,09,1.80
2014,02,17,07,10,3.60
2014,02,17,07,11,4.20
2014,02,17,07,12,3.20
2014,02,17,07,13,1.10
2014,02,17,07,14,2.70
2014,02,17,07,15,1.90
2014,02,17,07,16,2.80
2014,02,17,07,17,2.80
2014,02,17,07,18,2.30
2014,02,17,07,19,1.90
2014,02,17,07,20,1.50
2014,02,17,07,21,0.30
2014,02,17,07,22,1.40
2014,02,17,07,23,1.30
2014,02,17,07,24,1.50
2014,02,17,07,25,1.80
2014,02,17,07,26,3.40
2014,02,17,07,27,2.20
2014,02,17,07,28,1.10
2014,02,17,07,29,1.00
2014,02,17,07,30,1.00
2014,02,17,07,31,1.70
2014,02,17,07,32,1.40
2014,02,17,07,33,0.50
2014,02,17,07,34,1.40
2014,02,17,07,35,0.50
2014,02,17,07,36,2.10
2014,02,17,07,37,0.30
2014,02,17,07,38,1.10
2014,02,17,07,39,0.20
2014,02,17,07,40,1.60
2014,02,17,07,41,0.20
2014,02,17,07,42,0.80
2014,02,17,07,43,1.50
2014,02,17,07,44,1.70
2014,02,17,07,45,0.80
2014,02,17,07,46,3.90
2014,02,17,07,47,5.60
2014,02,17,07,48,3.90
2014,02,17,07,49,2.70
2014,02,17,07,50,5.00
2014,02,17,07,51,9.10
2014,02,17,07,52,2.00
2014,02,17,07,53,4.80
2014,02,17,07,54,3.20
2014,02,17,07,55,6.20
2014,02,17,07,56,4.20
2014,02,17,07,57,5.10
2014,02,17,07,58,8.60
2014,02,17,07,59,6.10
2014,02,17,08,00,7.20
2014,02,17,08,01,4.50
2014,02,17,08,02,5.20
2014,02,17,08,03,6.20
2014,02,17,08,04,2.60
2014,02,17,08,05,4.00
2014,02,17,08,06,1.50
2014,02,17,08,07,0.70
2014,02,17,08,08,0.60
2014,02,17,08,09,0.70
2014,02,17,08,10,1.50
2014,02,17,08,11,0.10
2014,02,17,08,12,0.50
2014,02,17,08,13,0.20
2014,02,17,08,14,0.00
2014,02,17,08,15,0.00
2014,02,17,08,16,0.20
2014,02,17,08,17,0.20
2014,02,17,08,18,1.10
2014,02,17,08,19,1.30
2014,02,17,08,20,4.20
2014,02,17,08,21,3.90
2014,02,17,08,22,4.90
2014,02,17,08,23,5.90
2014,02,17,08,24,3.40
2014,02,17,08,25,3.60
2014,02,17,08,26,4.30
2014,02,17,08,27,1.80
2014,02,17,08,28,1.50
2014,02,17,08,29,1.50
2014,02,17,08,30,2.20
2014,02,17,08,31,0.80
2014,02,17,08,32,0.00
2014,02,17,08,33,0.20
2014,02,17,08,34,0.50
2014,02,17,08,35,2.10
2014,02,17,08,36,5.10
2014,02,17,08,37,3.20
2014,02,17,08,38,0.90
2014,02,17,08,39,1.60
2014,02,17,08,40,2.30
2014,02,17,08,41,2.50
2014,02,17,08,42,0.20
2014,02,17,08,43,1.40
2014,02,17,08,44,4.30
2014,02,17,08,45,5.40
2014,02,17,08,46,3.80
2014,02,17,08,47,3.40
2014,02,17,08,48,1.40
2014,02,17,08,49,2.70
2014,02,17,08,50,1.80
2014,02,17,08,51,0.20
2014,02,17,08,52,0.10
2014,02,17,08,53,0.20
2014,02,17,08,54,0.00
2014,02,17,08,55,0.20
2014,02,17,08,56,0.80
2014,02,17,08,57,0.30
2014,02,17,08,58,0.80
2014,02,17,08,59,0.60
2014,02,17,09,00,0.00
2014,02,17,09,01,0.00
2014,02,17,09,02,0.20
2014,02,17,09,03,1.90
2014,02,17,09,04,0.20
2014,02,17,09,05,0.00
2014,02,17,09,06,0.30
2014,02,17,09,07,0.00
2014,02,17,09,08,0.10
2014,02,17,09,09,0.00
2014,02,17,09,10,0.00
2014,02,17,09,11,0.00
2014,02,17,09,12,1.20
2014,02,17,09,13,0.20
2014,02,17,09,14,0.00
2014,02,17,09,15,0.40
2014,02,17,09,16,0.00
2014,02,17,09,17,0.30
2014,02,17,09,18,2.10
2014,02,17,09,19,3.10
2014,02,17,09,20,2.80
2014,02,17,09,21,0.80
2014,02,17,09,22,0.30
2014,02,17,09,23,0.70
2014,02,17,09,24,1.10
2014,02,17,09,25,0.10
2014,02,17,09,26,1.20
2014,02,17,09,27,1.20
2014,02,17,09,28,0.60
2014,02,17,09,29,1.90
2014,02,17,09,30,2.30
2014,02,17,09,31,2.20
2014,02,17,09,32,3.40
2014,02,17,09,33,4.50
2014,02,17,09,34,3.20
2014,02,17,09,35,2.50
2014,02,17,09,36,2.00
2014,02,17,09,37,0.80
2014,02,17,09,38,3.20
2014,02,17,09,39,1.00
2014,02,17,09,40,1.20
2014,02,17,09,41,0.50
2014,02,17,09,42,0.00
2014,02,17,09,43,0.00
2014,02,17,09,44,0.00
2014,02,17,09,45,0.00
2014,02,17,09,46,0.00
2014,02,17,09,47,0.10
2014,02,17,09,48,1.90
2014,02,17,09,49,1.50
2014,02,17,09,50,0.40
2014,02,17,09,51,0.00
2014,02,17,09,52,0.00
2014,02,17,09,53,1.10
2014,02,17,09,54,0.60
2014,02,17,09,55,0.00
2014,02,17,09,56,0.00
2014,02,17,09,57,0.50
2014,02,17,09,58,0.00
2014,02,17,09,59,0.20
2014,02,17,10,00,0.60
2014,02,17,10,01,0.20
2014,02,17,10,02,0.00
2014,02,17,10,03,0.00
2014,02,17,10,04,0.60
2014,02,17,10,05,0.10
2014,02,17,10,06,1.70
2014,02,17,10,07,1.30
2014,02,17,10,08,0.00
2014,02,17,10,09,1.30
2014,02,17,10,10,0.20
2014,02,17,10,11,0.50
2014,02,17,10,12,1.70
2014,02,17,10,13,0.30
2014,02,17,10,14,3.80
2014,02,17,10,15,1.40
2014,02,17,10,16,0.80
2014,02,17,10,17,0.50
2014,02,17,10,18,3.00
2014,02,17,10,19,3.60
2014,02,17,10,20,4.00
2014,02,17,10,21,4.60
2014,02,17,10,22,4.80
2014,02,17,10,23,5.00
2014,02,17,10,24,5.80
2014,02,17,10,25,2.80
2014,02,17,10,26,6.70
2014,02,17,10,27,4.10
2014,02,17,10,28,1.90
2014,02,17,10,29,1.00
2014,02,17,10,30,6.00
2014,02,17,10,31,3.50
2014,02,17,10,32,1.30
2014,02,17,10,33,1.80
2014,02,17,10,34,0.60
2014,02,17,10,35,1.60
2014,02,17,10,36,0.90
2014,02,17,10,37,2.50
2014,02,17,10,38,1.40
2014,02,17,10,39,0.10
2014,02,17,10,40,0.80
2014,02,17,10,41,1.80
2014,02,17,10,42,4.80
2014,02,17,10,43,1.80
2014,02,17,10,44,3.80
2014,02,17,10,45,3.90
2014,02,17,10,46,0.80
2014,02,17,10,47,1.70
2014,02,17,10,48,1.20
2014,02,17,10,49,4.30
2014,02,17,10,50,3.40
2014,02,17,10,51,3.50
2014,02,17,10,52,3.40
2014,02,17,10,53,3.50
2014,02,17,10,54,3.00
2014,02,17,10,55,3.70
2014,02,17,10,56,6.10
2014,02,17,10,57,6.10
2014,02,17,10,58,5.70
2014,02,17,10,59,5.10
2014,02,17,11,00,4.20
2014,02,17,11,01,4.00
2014,02,17,11,02,6.40
2014,02,17,11,03,5.60
2014,02,17,11,04,6.20
2014,02,17,11,05,5.70
2014,02,17,11,06,5.30
2014,02,17,11,07,1.50
2014,02,17,11,08,0.20
2014,02,17,11,09,2.40
2014,02,17,11,10,3.10
2014,02,17,11,11,0.20
2014,02,17,11,12,0.60
2014,02,17,11,13,0.60
2014,02,17,11,14,0.60
2014,02,17,11,15,1.10
2014,02,17,11,16,2.60
2014,02,17,11,17,3.40
2014,02,17,11,18,2.20
2014,02,17,11,19,1.80
2014,02,17,11,20,2.00
2014,02,17,11,21,0.50
2014,02,17,11,22,2.40
2014,02,17,11,23,1.20
2014,02,17,11,24,2.70
2014,02,17,11,25,0.00
2014,02,17,11,26,0.50
2014,02,17,11,27,0.50
2014,02,17,11,28,0.10
2014,02,17,11,29,0.00
2014,02,17,11,30,0.00
2014,02,17,11,31,0.20
2014,02,17,11,32,0.00
2014,02,17,11,33,0.20
2014,02,17,11,34,0.20
2014,02,17,11,35,0.00
2014,02,17,11,36,0.30
2014,02,17,11,37,0.60
2014,02,17,11,38,0.60
2014,02,17,11,39,1.90
2014,02,17,11,40,3.20
2014,02,17,11,41,1.20
2014,02,17,11,42,0.80
2014,02,17,11,43,0.20
2014,02,17,11,44,0.70
2014,02,17,11,45,3.00
2014,02,17,11,46,0.40
2014,02,17,11,47,1.60
2014,02,17,11,48,2.10
2014,02,17,11,49,3.20
2014,02,17,11,50,3.00
2014,02,17,11,51,4.10
2014,02,17,11,52,0.60
2014,02,17,11,53,1.10
2014,02,17,11,54,1.60
2014,02,17,11,55,3.70
2014,02,17,11,56,1.90
2014,02,17,11,57,0.60
2014,02,17,11,58,1.50
2014,02,17,11,59,1.90
2014,02,17,12,00,2.40
2014,02,17,12,01,1.70
2014,02,17,12,02,1.20
2014,02,17,12,03,0.70
2014,02,17,12,04,0.80
2014,02,17,12,05,1.10
2014,02,17,12,06,1.70
2014,02,17,12,07,1.70
2014,02,17,12,08,1.10
2014,02,17,12,09,2.10
2014,02,17,12,10,0.70
2014,02,17,12,11,1.40
2014,02,17,12,12,2.80
2014,02,17,12,13,2.10
2014,02,17,12,14,0.80
2014,02,17,12,15,0.00
2014,02,17,12,16,1.50
2014,02,17,12,17,2.10
2014,02,17,12,18,2.00
2014,02,17,12,19,1.10
2014,02,17,12,20,1.00
2014,02,17,12,21,1.00
2014,02,17,12,22,3.10
2014,02,17,12,23,3.40
2014,02,17,12,24,4.60
2014,02,17,12,25,3.00
2014,02,17,12,26,2.40
2014,02,17,12,27,6.60
2014,02,17,12,28,7.80
2014,02,17,12,29,6.10
2014,02,17,12,30,7.50
2014,02,17,12,31,8.70
2014,02,17,12,32,6.80
2014,02,17,12,33,6.70
2014,02,17,12,34,3.10
2014,02,17,12,35,3.90
2014,02,17,12,36,4.90
2014,02,17,12,37,2.60
2014,02,17,12,38,10.70
2014,02,17,12,39,10.30
2014,02,17,12,40,2.90
2014,02,17,12,41,5.80
2014,02,17,12,42,5.60
2014,02,17,12,43,2.20
2014,02,17,12,44,5.10
2014,02,17,12,45,5.10
2014,02,17,12,46,2.40
2014,02,17,12,47,8.80
2014,02,17,12,48,1.90
2014,02,17,12,49,5.60
2014,02,17,12,50,7.50
2014,02,17,12,51,12.40
2014,02,17,12,52,8.90
2014,02,17,12,53,13.10
2014,02,17,12,54,12.20
2014,02,17,12,55,9.40
2014,02,17,12,56,5.10
2014,02,17,12,57,10.80
2014,02,17,12,58,7.60
2014,02,17,12,59,9.10
2014,02,17,13,00,6.40
2014,02,17,13,01,8.40
2014,02,17,13,02,7.30
2014,02,17,13,03,7.10
2014,02,17,13,04,9.90
2014,02,17,13,05,7.30
2014,02,17,13,06,6.90
2014,02,17,13,07,8.70
2014,02,17,13,08,13.00
2014,02,17,13,09,11.70
2014,02,17,13,10,10.70
2014,02,17,13,11,13.40
2014,02,17,13,12,11.20
2014,02,17,13,13,7.10
2014,02,17,13,14,6.00
2014,02,17,13,15,9.30
2014,02,17,13,16,11.30
2014,02,17,13,17,7.40
2014,02,17,13,18,7.90
2014,02,17,13,19,6.20
2014,02,17,13,20,7.50
2014,02,17,13,21,13.60
2014,02,17,13,22,9.70
2014,02,17,13,23,7.10
2014,02,17,13,24,5.20
2014,02,17,13,25,5.80
2014,02,17,13,26,7.70
2014,02,17,13,27,13.00
2014,02,17,13,28,6.70
2014,02,17,13,29,10.60
2014,02,17,13,30,9.10
2014,02,17,13,31,11.40
2014,02,17,13,32,11.30
2014,02,17,13,33,10.20
2014,02,17,13,34,9.40
2014,02,17,13,35,11.40
2014,02,17,13,36,9.60
2014,02,17,13,37,10.40
2014,02,17,13,38,12.40
2014,02,17,13,39,10.20
2014,02,17,13,40,12.00
2014,02,17,13,41,10.10
2014,02,17,13,42,9.00
2014,02,17,13,43,9.30
2014,02,17,13,44,7.40
2014,02,17,13,45,7.60
2014,02,17,13,46,9.50
2014,02,17,13,47,9.60
2014,02,17,13,48,7.50
2014,02,17,13,49,10.30
2014,02,17,13,50,8.90
2014,02,17,13,51,14.00
2014,02,17,13,52,14.00
2014,02,17,13,53,12.60
2014,02,17,13,54,9.80
2014,02,17,13,55,10.70
2014,02,17,13,56,9.00
2014,02,17,13,57,11.60
2014,02,17,13,58,8.10
2014,02,17,13,59,9.10
2014,02,17,14,00,9.90
2014,02,17,14,01,10.30
2014,02,17,14,02,10.50
2014,02,17,14,03,9.70
2014,02,17,14,04,8.40
2014,02,17,14,05,8.00
2014,02,17,14,06,9.90
2014,02,17,14,07,8.80
2014,02,17,14,08,9.00
2014,02,17,14,09,10.50
2014,02,17,14,10,7.60
2014,02,17,14,11,5.50
2014,02,17,14,12,5.10
2014,02,17,14,13,6.90
2014,02,17,14,14,8.20
2014,02,17,14,15,5.10
2014,02,17,14,16,7.80
2014,02,17,14,17,3.40
2014,02,17,14,18,8.10
2014,02,17,14,19,9.40
2014,02,17,14,20,8.00
2014,02,17,14,21,9.70
2014,02,17,14,22,9.40
2014,02,17,14,23,7.60
2014,02,17,14,24,6.80
2014,02,17,14,25,5.40
2014,02,17,14,26,5.50
2014,02,17,14,27,8.20
2014,02,17,14,28,8.10
2014,02,17,14,29,3.60
2014,02,17,14,30,6.10
2014,02,17,14,31,7.20
2014,02,17,14,32,6.70
2014,02,17,14,33,7.90
2014,02,17,14,34,5.50
2014,02,17,14,35,5.40
2014,02,17,14,36,8.70
2014,02,17,14,37,9.30
2014,02,17,14,38,5.90
2014,02,17,14,39,6.80
2014,02,17,14,40,7.30
2014,02,17,14,41,5.00
2014,02,17,14,42,5.20
2014,02,17,14,43,7.70
2014,02,17,14,44,7.80
2014,02,17,14,45,6.70
2014,02,17,14,46,8.10
2014,02,17,14,47,6.80
2014,02,17,14,48,11.60
2014,02,17,14,49,12.20
2014,02,17,14,50,7.40
2014,02,17,14,51,7.20
2014,02,17,14,52,7.10
2014,02,17,14,53,4.70
2014,02,17,14,54,7.30
2014,02,17,14,55,9.90
2014,02,17,14,56,10.80
2014,02,17,14,57,9.60
2014,02,17,14,58,7.50
2014,02,17,14,59,7.50
2014,02,17,15,00,6.70
2014,02,17,15,01,10.30
2014,02,17,15,02,8.60
2014,02,17,15,03,4.90
2014,02,17,15,04,8.10
2014,02,17,15,05,10.60
2014,02,17,15,06,8.10
2014,02,17,15,07,7.30
2014,02,17,15,08,8.60
2014,02,17,15,09,12.20
2014,02,17,15,10,10.00
2014,02,17,15,11,10.00
2014,02,17,15,12,9.70
2014,02,17,15,13,11.20
2014,02,17,15,14,7.60
2014,02,17,15,15,4.90
2014,02,17,15,16,8.00
2014,02,17,15,17,10.00
2014,02,17,15,18,7.10
2014,02,17,15,19,9.00
2014,02,17,15,20,10.50
2014,02,17,15,21,9.60
2014,02,17,15,22,7.80
2014,02,17,15,23,7.90
2014,02,17,15,24,7.00
2014,02,17,15,25,6.90
2014,02,17,15,26,6.80
2014,02,17,15,27,6.70
2014,02,17,15,28,11.70
2014,02,17,15,29,4.90
2014,02,17,15,30,6.10
2014,02,17,15,31,7.10
2014,02,17,15,32,7.30
2014,02,17,15,33,10.10
2014,02,17,15,34,9.60
2014,02,17,15,35,8.10
2014,02,17,15,36,10.30
2014,02,17,15,37,8.30
2014,02,17,15,38,9.20
2014,02,17,15,39,8.30
2014,02,17,15,40,9.30
2014,02,17,15,41,7.80
2014,02,17,15,42,6.80
2014,02,17,15,43,7.60
2014,02,17,15,44,9.20
2014,02,17,15,45,7.50
2014,02,17,15,46,6.40
2014,02,17,15,47,9.60
2014,02,17,15,48,9.50
2014,02,17,15,49,8.30
2014,02,17,15,50,8.00
2014,02,17,15,51,5.60
2014,02,17,15,52,6.00
2014,02,17,15,53,6.90
2014,02,17,15,54,4.90
2014,02,17,15,55,8.90
2014,02,17,15,56,4.40
2014,02,17,15,57,8.90
2014,02,17,15,58,7.40
2014,02,17,15,59,8.90
2014,02,17,16,00,6.40
2014,02,17,16,01,4.40
2014,02,17,16,02,4.70
2014,02,17,16,03,2.30
2014,02,17,16,04,5.80
2014,02,17,16,05,6.10
2014,02,17,16,06,6.80
2014,02,17,16,07,11.00
2014,02,17,16,08,9.10
2014,02,17,16,09,7.40
2014,02,17,16,10,6.00
2014,02,17,16,11,6.70
2014,02,17,16,12,3.60
2014,02,17,16,13,5.10
2014,02,17,16,14,3.10
2014,02,17,16,15,5.70
2014,02,17,16,16,6.10
2014,02,17,16,17,5.10
2014,02,17,16,18,6.90
2014,02,17,16,19,3.90
2014,02,17,16,20,4.70
2014,02,17,16,21,3.20
2014,02,17,16,22,2.80
2014,02,17,16,23,3.40
2014,02,17,16,24,6.20
2014,02,17,16,25,2.10
2014,02,17,16,26,1.80
2014,02,17,16,27,5.20
2014,02,17,16,28,5.10
2014,02,17,16,29,5.80
2014,02,17,16,30,4.40
2014,02,17,16,31,6.30
2014,02,17,16,32,3.10
2014,02,17,16,33,1.00
2014,02,17,16,34,3.40
2014,02,17,16,35,0.50
2014,02,17,16,36,3.50
2014,02,17,16,37,1.80
2014,02,17,16,38,2.80
2014,02,17,16,39,1.90
2014,02,17,16,40,3.60
2014,02,17,16,41,4.20
2014,02,17,16,42,4.00
2014,02,17,16,43,3.40
2014,02,17,16,44,3.10
2014,02,17,16,45,1.40
2014,02,17,16,46,4.40
2014,02,17,16,47,1.90
2014,02,17,16,48,5.00
2014,02,17,16,49,1.60
2014,02,17,16,50,1.00
2014,02,17,16,51,0.50
2014,02,17,16,52,2.80
2014,02,17,16,53,2.70
2014,02,17,16,54,4.10
2014,02,17,16,55,3.40
2014,02,17,16,56,6.20
2014,02,17,16,57,8.20
2014,02,17,16,58,6.10
2014,02,17,16,59,6.30
2014,02,17,17,00,5.70
2014,02,17,17,01,1.60
2014,02,17,17,02,0.90
2014,02,17,17,03,2.30
2014,02,17,17,04,0.00
2014,02,17,17,05,0.40
2014,02,17,17,06,1.60
2014,02,17,17,07,3.40
2014,02,17,17,08,0.30
2014,02,17,17,09,0.80
2014,02,17,17,10,1.50
2014,02,17,17,11,0.50
2014,02,17,17,12,0.60
2014,02,17,17,13,0.00
2014,02,17,17,14,0.00
2014,02,17,17,15,0.00
2014,02,17,17,16,0.00
2014,02,17,17,17,0.00
2014,02,17,17,18,0.00
2014,02,17,17,19,0.00
2014,02,17,17,20,0.00
2014,02,17,17,21,0.00
2014,02,17,17,22,0.00
2014,02,17,17,23,0.00
2014,02,17,17,24,0.00
2014,02,17,17,25,0.10
2014,02,17,17,26,0.10
2014,02,17,17,27,0.50
2014,02,17,17,28,0.00
2014,02,17,17,29,0.00
2014,02,17,17,30,0.10
2014,02,17,17,31,0.30
2014,02,17,17,32,2.10
2014,02,17,17,33,2.50
2014,02,17,17,34,3.20
2014,02,17,17,35,2.30
2014,02,17,17,36,1.20
2014,02,17,17,37,0.00
2014,02,17,17,38,0.00
2014,02,17,17,39,0.10
2014,02,17,17,40,0.50
2014,02,17,17,41,0.60
2014,02,17,17,42,0.50
2014,02,17,17,43,0.80
2014,02,17,17,44,0.50
2014,02,17,17,45,0.70
2014,02,17,17,46,1.10
2014,02,17,17,47,0.70
2014,02,17,17,48,0.20
2014,02,17,17,49,0.50
2014,02,17,17,50,3.80
2014,02,17,17,51,3.90
2014,02,17,17,52,4.30
2014,02,17,17,53,3.30
2014,02,17,17,54,1.50
2014,02,17,17,55,0.10
2014,02,17,17,56,2.10
2014,02,17,17,57,0.80
2014,02,17,17,58,0.00
2014,02,17,17,59,0.60
2014,02,17,18,00,1.50
2014,02,17,18,01,2.50
2014,02,17,18,02,4.80
2014,02,17,18,03,4.00
2014,02,17,18,04,3.00
2014,02,17,18,05,4.70
2014,02,17,18,06,3.40
2014,02,17,18,07,5.60
2014,02,17,18,08,5.60
2014,02,17,18,09,5.30
2014,02,17,18,10,6.40